Regional Weather Roundup
Issued by NWS Charleston, WV

Home | Current Version | Previous Version | Text Only | Print | Product List | Glossary Off
Versions: 1 2 3 4 5 6 7 8 9 10 11 12 13 14 15 16 17 18 19 20 21 22 23 24 25 26 27 28 29 30 31 32 33 34 35 36 37 38 39 40 41 42 43 44 45 46 47 48 49 50

000
ASUS41 KRLX 180310
RWRRLX
West Virginia Regional Weather Roundup
National Weather Service Charleston WV
1100 PM EDT FRI APR 17 2015

Note: "fair" indicates few or no clouds below 12,000 feet with no
significant weather and/or obstructions to visibility.

WVZ003-180400-
Northern Panhandle of West Virginia

CITY           SKY/WX    TMP DP  RH WIND       PRES   REMARKS
WHEELING       PTCLDY    63  46  54 N5        30.05R
$$

WVZ009-180400-
Northwest West Virginia

CITY           SKY/WX    TMP DP  RH WIND       PRES   REMARKS
PARKERSBURG    MOCLDY    61  51  70 CALM      30.06R
$$

WVZ006-180400-
Western West Virginia

CITY           SKY/WX    TMP DP  RH WIND       PRES   REMARKS
HUNTINGTON     MOCLDY    63  57  81 N5        30.03R
$$

WVZ015-180400-
West Central West Virginia

CITY           SKY/WX    TMP DP  RH WIND       PRES   REMARKS
CHARLESTON     MOCLDY    64  55  72 CALM      30.02S
$$

WVZ022-031-180400-
North Central West Virginia

CITY           SKY/WX    TMP DP  RH WIND       PRES   REMARKS
CLARKSBURG     MOCLDY    57  55  93 CALM      30.04R
MORGANTOWN     MOCLDY    59  53  80 S5        30.05S
$$

WVZ025-035-042-045-180400-
Southern West Virginia

CITY           SKY/WX    TMP DP  RH WIND       PRES   REMARKS
BECKLEY        CLOUDY    63  51  65 N3        30.07S
LOGAN            N/A     66  55  68 CALM      30.01F
BLUEFIELD      MOCLDY    64  49  57 N3        30.09S
LEWISBURG      CLOUDY    60  52  76 N5        30.07R
$$

WVZ047-180400-
Northern Mountains of West Virginia

CITY           SKY/WX    TMP DP  RH WIND       PRES   REMARKS
ELKINS         MOCLDY    48  47  96 CALM      30.08S FOG
$$

WVZ052-180400-
Eastern Panhandle of West Virginia

CITY           SKY/WX    TMP DP  RH WIND       PRES   REMARKS
MARTINSBURG    PTCLDY    64  52  64 NW5       30.01R
PETERSBURG     MOCLDY    52  47  81 W3        30.05S
$$



USA.gov is the U.S. government's official web portal to all federal, state and local government web resources and services.